• în România
  • Lista ţărilor
  • Pe 7 zile
  • Temperatura apei
  • Hartă satelitară
  • Meteo pe hartă
  • Widget-uri
  • user-avatar
    Intrare

    Meteo pe oră la Nowice

    Astăzi, 22 Octombrie, Luni

    Timp Temperatura Precipitaţii Vânt Presiune Umiditate
    00:00 +7°C° 0 mm 1 m/s 751 mmHg 81%
    01:00 +6°C° 0 mm 1 m/s 751 mmHg 81%
    02:00 +6°C° 0 mm 1 m/s 750 mmHg 82%
    03:00 +6°C° 0 mm 1 m/s 750 mmHg 82%
    04:00 +6°C° 0 mm 1 m/s 750 mmHg 83%
    05:00 +6°C° 0 mm 1 m/s 750 mmHg 83%
    06:00 +6°C° 0 mm 1 m/s 750 mmHg 83%
    07:00 +6°C° 0 mm 1 m/s 750 mmHg 83%
    08:00 +8°C° 0 mm 1 m/s 750 mmHg 75%
    09:00 +9°C° 0 mm 2 m/s 750 mmHg 67%
    10:00 +12°C° 0 mm 2 m/s 750 mmHg 59%
    11:00 +13°C° 0 mm 2 m/s 749 mmHg 56%
    12:00 +13°C° 0 mm 3 m/s 749 mmHg 52%
    13:00 +14°C° 0 mm 3 m/s 749 mmHg 49%
    14:00 +14°C° 0 mm 3 m/s 748 mmHg 53%
    15:00 +13°C° 0 mm 3 m/s 748 mmHg 56%
    16:00 +12°C° 0 mm 3 m/s 748 mmHg 60%
    17:00 +11°C° 0.4 mm 3 m/s 748 mmHg 68%
    18:00 +11°C° 0.4 mm 4 m/s 749 mmHg 77%
    19:00 +10°C° 0.4 mm 4 m/s 749 mmHg 85%
    20:00 +8°C° 0.1 mm 4 m/s 749 mmHg 84%
    21:00 +7°C° 0.1 mm 4 m/s 750 mmHg 84%
    22:00 +6°C° 0.1 mm 4 m/s 750 mmHg 83%
    23:00 +7°C° 0 mm 3 m/s 750 mmHg 85%

    Mâine, 23 Octombrie, Marţi

    Timp Temperatura Precipitaţii Vânt Presiune Umiditate
    00:00 +5°C° 0 mm 3 m/s 750 mmHg 87%
    01:00 +4°C° 0 mm 3 m/s 750 mmHg 89%
    02:00 +4°C° 0 mm 3 m/s 750 mmHg 88%
    03:00 +4°C° 0 mm 3 m/s 749 mmHg 88%
    04:00 +4°C° 0 mm 3 m/s 749 mmHg 87%
    05:00 +4°C° 0 mm 3 m/s 749 mmHg 86%
    06:00 +4°C° 0 mm 4 m/s 748 mmHg 84%
    07:00 +4°C° 0 mm 4 m/s 748 mmHg 83%
    08:00 +5°C° 0 mm 5 m/s 747 mmHg 78%
    09:00 +5°C° 0 mm 6 m/s 746 mmHg 73%
    10:00 +6°C° 0 mm 7 m/s 746 mmHg 68%
    11:00 +6°C° 0.2 mm 8 m/s 745 mmHg 68%
    12:00 +6°C° 0.2 mm 9 m/s 744 mmHg 68%
    13:00 +7°C° 0.2 mm 9 m/s 742 mmHg 67%
    14:00 +7°C° 0.4 mm 10 m/s 741 mmHg 70%
    15:00 +7°C° 0.4 mm 10 m/s 740 mmHg 73%
    16:00 +7°C° 0.4 mm 10 m/s 739 mmHg 75%
    17:00 +7°C° 0.2 mm 10 m/s 739 mmHg 76%
    18:00 +8°C° 0.2 mm 11 m/s 738 mmHg 77%
    19:00 +8°C° 0.2 mm 11 m/s 737 mmHg 77%
    20:00 +9°C° 0.3 mm 11 m/s 737 mmHg 78%
    21:00 +9°C° 0.3 mm 11 m/s 736 mmHg 79%
    22:00 +9°C° 0.3 mm 11 m/s 735 mmHg 79%
    23:00 +11°C° 0.6 mm 11 m/s 735 mmHg 79%

    Poimâine, 24 Octombrie, Miercuri

    Timp Temperatura Precipitaţii Vânt Presiune Umiditate
    00:00 +11°C° 0.6 mm 11 m/s 734 mmHg 79%
    01:00 +11°C° 0.6 mm 11 m/s 733 mmHg 80%
    02:00 +9°C° 1.1 mm 12 m/s 733 mmHg 78%
    03:00 +9°C° 1.1 mm 12 m/s 733 mmHg 77%
    04:00 +9°C° 1.1 mm 12 m/s 733 mmHg 75%
    05:00 +8°C° 0.3 mm 11 m/s 734 mmHg 73%
    06:00 +6°C° 0.3 mm 10 m/s 735 mmHg 72%
    07:00 +5°C° 0.3 mm 10 m/s 736 mmHg 70%
    08:00 +5°C° 0.1 mm 10 m/s 737 mmHg 67%
    09:00 +5°C° 0.1 mm 10 m/s 738 mmHg 64%
    10:00 +6°C° 0.1 mm 11 m/s 738 mmHg 61%
    11:00 +6°C° 0 mm 11 m/s 739 mmHg 56%
    12:00 +7°C° 0 mm 10 m/s 740 mmHg 51%
    13:00 +7°C° 0 mm 10 m/s 740 mmHg 45%
    14:00 +7°C° 0 mm 9 m/s 741 mmHg 47%
    15:00 +6°C° 0 mm 8 m/s 741 mmHg 48%
    16:00 +6°C° 0 mm 7 m/s 742 mmHg 50%
    17:00 +6°C° 0 mm 7 m/s 742 mmHg 53%
    18:00 +5°C° 0 mm 6 m/s 743 mmHg 56%
    19:00 +5°C° 0 mm 5 m/s 743 mmHg 59%
    20:00 +5°C° 0 mm 5 m/s 743 mmHg 62%
    21:00 +3°C° 0 mm 5 m/s 744 mmHg 64%
    22:00 +3°C° 0 mm 5 m/s 744 mmHg 67%
    23:00 +4°C° 0 mm 4 m/s 744 mmHg 70%

    25 Octombrie, Joi

    Timp Temperatura Precipitaţii Vânt Presiune Umiditate
    00:00 +3°C° 0 mm 4 m/s 744 mmHg 74%
    01:00 +3°C° 0 mm 4 m/s 744 mmHg 78%
    02:00 +3°C° 0 mm 4 m/s 744 mmHg 79%
    03:00 +4°C° 0 mm 4 m/s 744 mmHg 80%
    04:00 +3°C° 0 mm 5 m/s 744 mmHg 81%
    05:00 +3°C° 0 mm 5 m/s 744 mmHg 82%
    06:00 +5°C° 0 mm 4 m/s 743 mmHg 82%
    07:00 +5°C° 0 mm 4 m/s 743 mmHg 83%
    08:00 +7°C° 0.1 mm 5 m/s 743 mmHg 82%
    09:00 +8°C° 0.1 mm 6 m/s 742 mmHg 81%
    10:00 +9°C° 0.1 mm 6 m/s 742 mmHg 80%
    11:00 +10°C° 0.1 mm 7 m/s 742 mmHg 78%
    12:00 +10°C° 0.1 mm 7 m/s 742 mmHg 75%
    13:00 +11°C° 0.1 mm 7 m/s 741 mmHg 73%
    14:00 +11°C° 0 mm 7 m/s 741 mmHg 74%
    15:00 +11°C° 0 mm 6 m/s 741 mmHg 74%
    16:00 +10°C° 0 mm 6 m/s 741 mmHg 75%
    17:00 +10°C° 0 mm 5 m/s 741 mmHg 78%
    18:00 +9°C° 0 mm 5 m/s 741 mmHg 81%
    19:00 +8°C° 0 mm 4 m/s 741 mmHg 83%
    20:00 +8°C° 0 mm 4 m/s 741 mmHg 85%
    21:00 +7°C° 0 mm 4 m/s 740 mmHg 86%
    22:00 +8°C° 0 mm 3 m/s 740 mmHg 87%
    23:00 +8°C° 0 mm 3 m/s 740 mmHg 89%

    26 Octombrie, Vineri

    Timp Temperatura Precipitaţii Vânt Presiune Umiditate
    00:00 +7°C° 0 mm 3 m/s 740 mmHg 90%
    01:00 +7°C° 0 mm 3 m/s 740 mmHg 92%
    02:00 +7°C° 0 mm 3 m/s 739 mmHg 92%
    03:00 +7°C° 0 mm 2 m/s 739 mmHg 92%
    04:00 +8°C° 0 mm 2 m/s 739 mmHg 92%
    05:00 +8°C° 0 mm 3 m/s 738 mmHg 92%
    06:00 +8°C° 0 mm 3 m/s 738 mmHg 92%
    07:00 +8°C° 0 mm 3 m/s 738 mmHg 91%
    08:00 +8°C° 0 mm 4 m/s 738 mmHg 85%
    09:00 +10°C° 0 mm 4 m/s 737 mmHg 78%
    10:00 +12°C° 0 mm 5 m/s 737 mmHg 71%
    11:00 +12°C° 0 mm 5 m/s 737 mmHg 68%
    12:00 +13°C° 0 mm 5 m/s 736 mmHg 65%
    13:00 +13°C° 0 mm 6 m/s 736 mmHg 62%
    14:00 +13°C° 0 mm 5 m/s 736 mmHg 65%
    15:00 +12°C° 0 mm 4 m/s 735 mmHg 67%
    16:00 +12°C° 0 mm 3 m/s 735 mmHg 69%
    17:00 +11°C° 0 mm 3 m/s 735 mmHg 72%
    18:00 +11°C° 0 mm 3 m/s 735 mmHg 75%
    19:00 +10°C° 0 mm 3 m/s 735 mmHg 77%
    20:00 +10°C° 0 mm 2 m/s 735 mmHg 79%
    21:00 +9°C° 0 mm 2 m/s 735 mmHg 81%
    22:00 +9°C° 0 mm 2 m/s 735 mmHg 83%
    23:00 +10°C° 0 mm 1 m/s 735 mmHg 85%

    27 Octombrie, Sâmbătă

    Timp Temperatura Precipitaţii Vânt Presiune Umiditate
    00:00 +9°C° 0 mm 1 m/s 734 mmHg 87%
    01:00 +9°C° 0 mm 1 m/s 734 mmHg 89%
    02:00 +9°C° 0 mm 1 m/s 734 mmHg 89%
    03:00 +9°C° 0 mm 1 m/s 733 mmHg 89%
    04:00 +9°C° 0 mm 1 m/s 733 mmHg 90%
    05:00 +9°C° 0.2 mm 1 m/s 732 mmHg 90%
    06:00 +9°C° 0.2 mm 1 m/s 732 mmHg 90%
    07:00 +9°C° 0.2 mm 1 m/s 731 mmHg 91%
    08:00 +9°C° 0.3 mm 2 m/s 731 mmHg 88%
    09:00 +10°C° 0.3 mm 2 m/s 730 mmHg 85%
    10:00 +10°C° 0.3 mm 2 m/s 730 mmHg 83%
    11:00 +10°C° 0.7 mm 2 m/s 730 mmHg 84%
    12:00 +10°C° 0.7 mm 2 m/s 730 mmHg 86%
    13:00 +10°C° 0.7 mm 2 m/s 729 mmHg 88%
    14:00 +9°C° 0.9 mm 3 m/s 730 mmHg 89%
    15:00 +8°C° 0.9 mm 4 m/s 730 mmHg 90%
    16:00 +7°C° 0.9 mm 4 m/s 730 mmHg 92%
    17:00 +6°C° 0.4 mm 4 m/s 731 mmHg 91%
    18:00 +6°C° 0.4 mm 4 m/s 731 mmHg 90%
    19:00 +6°C° 0.4 mm 4 m/s 732 mmHg 90%
    20:00 +5°C° 0.3 mm 4 m/s 732 mmHg 89%
    21:00 +5°C° 0.3 mm 3 m/s 732 mmHg 89%
    22:00 +5°C° 0.3 mm 3 m/s 733 mmHg 89%
    23:00 +5°C° 0.6 mm 3 m/s 733 mmHg 89%

    28 Octombrie, Duminică

    Timp Temperatura Precipitaţii Vânt Presiune Umiditate
    00:00 +4°C° 0.6 mm 3 m/s 733 mmHg 90%
    01:00 +4°C° 0.6 mm 3 m/s 733 mmHg 90%
    02:00 +4°C° 0.6 mm 3 m/s 733 mmHg 90%
    03:00 +4°C° 0.6 mm 3 m/s 733 mmHg 91%
    04:00 +4°C° 0.6 mm 3 m/s 733 mmHg 91%
    05:00 +4°C° 0.7 mm 3 m/s 733 mmHg 91%
    06:00 +4°C° 0.7 mm 3 m/s 733 mmHg 91%
    07:00 +4°C° 0.7 mm 3 m/s 733 mmHg 91%
    08:00 +4°C° 0.2 mm 3 m/s 733 mmHg 90%
    09:00 +4°C° 0.2 mm 3 m/s 733 mmHg 88%
    10:00 +4°C° 0.2 mm 3 m/s 733 mmHg 87%
    11:00 +5°C° 0.2 mm 3 m/s 733 mmHg 87%
    12:00 +5°C° 0.2 mm 3 m/s 733 mmHg 87%
    13:00 +5°C° 0.2 mm 3 m/s 733 mmHg 88%
    14:00 +5°C° 0.4 mm 3 m/s 733 mmHg 89%
    15:00 +5°C° 0.4 mm 3 m/s 733 mmHg 90%
    16:00 +6°C° 0.4 mm 2 m/s 733 mmHg 91%
    17:00 +6°C° 0.1 mm 2 m/s 733 mmHg 92%
    18:00 +7°C° 0.1 mm 1 m/s 734 mmHg 93%
    19:00 +7°C° 0.1 mm 1 m/s 734 mmHg 93%
    20:00 +6°C° 0 mm 1 m/s 734 mmHg 94%
    21:00 +6°C° 0 mm 1 m/s 735 mmHg 94%
    22:00 +6°C° 0 mm 1 m/s 735 mmHg 95%
    23:00 +6°C° 0 mm 1 m/s 736 mmHg 95%
    Arată mai mult